Regional Weather Roundup
Issued by NWS

Home | Current Version | Previous Version | Text Only | Print | Product List | Glossary Off
Versions: 1 2 3 4 5 6 7 8 9 10 11 12 13 14 15 16 17 18 19 20 21 22 23 24 25 26 27 28 29 30 31 32 33 34 35 36 37 38 39 40 41 42 43 44 45 46 47 48 49 50

000
ASUS45 KCYS 240610
RWRWY

WYOMING REGIONAL WEATHER ROUNDUP
NATIONAL WEATHER SERVICE CHEYENNE WY
1200 AM MDT WED MAY 24 2017

NOTE:  "FAIR" INDICATES FEW OR NO CLOUDS BELOW 12,000 FEET
WITH NO SIGNIFICANT WEATHER AND/OR OBSTRUCTIONS TO VISIBILITY.

WYZ001-240700-
YELLOWSTONE NATIONAL PARK

CITY           SKY/WX    TMP DP  RH WIND       PRES   REMARKS
LK YELLOWSTONE   N/A     35  33  92 CALM      30.12F
6HR MIN TEMP:  35; 6HR MAX TEMP:  62;

W YELLOWSTONE  NOT AVBL

$$
WYZ002>013-054>058-071-098>099-240700-
NORTHERN WYOMING

CITY           SKY/WX    TMP DP  RH WIND       PRES   REMARKS
JACKSON        FAIR      48  36  61 CALM      30.06F
CODY           FAIR      52  40  63 S13       29.89F
GREYBULL       FAIR      54  32  43 E6        29.86F
6HR MIN TEMP:  54; 6HR MAX TEMP:  74;

WORLAND        FAIR      52  34  50 SE10      29.87F
6HR MIN TEMP:  51; 6HR MAX TEMP:  71;

SHERIDAN       FAIR      47  40  76 S5        29.83F
6HR MIN TEMP:  45; 6HR MAX TEMP:  66;

BUFFALO        FAIR      51  38  60 S9        29.89F
6HR MIN TEMP:  50; 6HR MAX TEMP:  62;

GILLETTE       FAIR      46  39  76 S9        29.90F
6HR MIN TEMP:  43; 6HR MAX TEMP:  61;

HULETT         FAIR      46  34  61 S8        29.92F
NEWCASTLE      FAIR      46  34  61 SE13      29.97F

$$
WYZ014>020-022>026-101>103-240700-
CENTRAL WYOMING

CITY           SKY/WX    TMP DP  RH WIND       PRES   REMARKS
BIG PINEY      FAIR      40  33  76 NW7       30.11F
6HR MIN TEMP:  40; 6HR MAX TEMP:  69;

PINEDALE       FAIR      43  32  65 N6        30.11F
DUBOIS         FAIR      46  32  57 W6        30.07F
LANDER         FAIR      50  35  56 W9        29.95F
6HR MIN TEMP:  49; 6HR MAX TEMP:  64;

RIVERTON       FAIR      51  34  52 NW3       29.96F
6HR MIN TEMP:  47; 6HR MAX TEMP:  66;

CASPER         FAIR      45  39  79 SW9       29.97F
6HR MIN TEMP:  42; 6HR MAX TEMP:  62;

DOUGLAS        FAIR      40  35  83 SE7       29.99F
6HR MIN TEMP:  40; 6HR MAX TEMP:  59;


$$
WYZ021-027>030-104>119-240700-
SOUTHERN WYOMING

CITY           SKY/WX    TMP DP  RH WIND       PRES   REMARKS
EVANSTON       FAIR      50  31  48 SW6       30.15F
6HR MIN TEMP:  50; 6HR MAX TEMP:  68;

KEMMERER         N/A     48  37  66 W8        30.14F
FORT BRIDGER   FAIR      56  32  40 SW10      30.17F
ROCK SPRINGS   FAIR      54  38  54 W13       30.08F
6HR MIN TEMP:  54; 6HR MAX TEMP:  68;

DIXON            N/A     42  33  70 CALM      30.15F
RAWLINS        FAIR      39  31  72 CALM      30.07F
6HR MIN TEMP:  39; 6HR MAX TEMP:  63;

LARAMIE        FAIR      35  29  78 SW7       30.08F WCI  29
6HR MIN TEMP:  32; 6HR MAX TEMP:  54;

CHEYENNE       FAIR      39  33  79 W9        30.06F WCI  33
6HR MIN TEMP:  39; 6HR MAX TEMP:  56;

TORRINGTON     FAIR      43  37  79 S5        29.99F
6HR MIN TEMP:  42; 6HR MAX TEMP:  64;

PINE BLUFFS    FAIR      36  34  93 MISG      30.05F

$$



USA.gov is the U.S. government's official web portal to all federal, state and local government web resources and services.